Time,TemperatureF,DewpointF,PressureIn,WindDirection,WindDirectionDegrees,WindSpeedMPH,WindSpeedGustMPH,Humidity,HourlyPrecipIn,Conditions,Clouds,dailyrainin,SoftwareType,DateUTC
2013-04-06 00:03:00,32.3,21.0,30.23,ENE,78,0.0,0.0,63,0.00,,,0.00,weatherlink.com 1.10,2013-04-06 04:03:00,
2013-04-06 00:18:00,32.0,21.0,30.23,ENE,78,0.0,0.0,63,0.00,,,0.00,weatherlink.com 1.10,2013-04-06 04:18:00,
2013-04-06 00:33:00,31.6,21.0,30.24,ENE,78,0.0,0.0,65,0.00,,,0.00,weatherlink.com 1.10,2013-04-06 04:33:00,
2013-04-06 00:48:00,31.3,21.0,30.24,ENE,78,0.0,0.0,67,0.00,,,0.00,weatherlink.com 1.10,2013-04-06 04:48:00,
2013-04-06 01:03:00,31.0,20.0,30.24,ENE,78,0.0,0.0,65,0.00,,,0.00,weatherlink.com 1.10,2013-04-06 05:03:00,
2013-04-06 01:18:00,30.7,21.0,30.25,ENE,78,0.0,0.0,67,0.00,,,0.00,weatherlink.com 1.10,2013-04-06 05:18:00,
2013-04-06 01:33:00,30.5,21.0,30.25,ENE,78,0.0,0.0,69,0.00,,,0.00,weatherlink.com 1.10,2013-04-06 05:33:00,
2013-04-06 01:48:00,30.2,21.0,30.25,ENE,78,0.0,0.0,69,0.00,,,0.00,weatherlink.com 1.10,2013-04-06 05:48:00,
2013-04-06 02:03:00,30.0,21.0,30.24,ENE,78,0.0,0.0,70,0.00,,,0.00,weatherlink.com 1.10,2013-04-06 06:03:00,
2013-04-06 02:18:00,29.7,21.0,30.24,ENE,78,0.0,0.0,71,0.00,,,0.00,weatherlink.com 1.10,2013-04-06 06:18:00,
2013-04-06 02:33:00,29.4,21.0,30.24,ENE,78,0.0,0.0,71,0.00,,,0.00,weatherlink.com 1.10,2013-04-06 06:33:00,
2013-04-06 02:48:00,29.3,21.0,30.25,ENE,78,0.0,0.0,72,0.00,,,0.00,weatherlink.com 1.10,2013-04-06 06:48:00,
2013-04-06 03:03:00,29.0,21.0,30.24,ENE,78,0.0,0.0,72,0.00,,,0.00,weatherlink.com 1.10,2013-04-06 07:03:00,
2013-04-06 03:18:00,28.9,21.0,30.24,ENE,78,0.0,0.0,72,0.00,,,0.00,weatherlink.com 1.10,2013-04-06 07:18:00,
2013-04-06 03:33:00,28.8,21.0,30.24,ENE,78,0.0,0.0,72,0.00,,,0.00,weatherlink.com 1.10,2013-04-06 07:33:00,
2013-04-06 03:48:00,28.4,20.0,30.25,ENE,78,0.0,1.0,72,0.00,,,0.00,weatherlink.com 1.10,2013-04-06 07:48:00,
2013-04-06 04:03:00,28.2,21.0,30.24,ENE,78,0.0,0.0,73,0.00,,,0.00,weatherlink.com 1.10,2013-04-06 08:03:00,
2013-04-06 04:33:00,27.9,21.0,30.25,ENE,78,0.0,0.0,75,0.00,,,0.00,weatherlink.com 1.10,2013-04-06 08:33:00,
2013-04-06 05:18:00,27.4,20.0,30.26,ENE,78,0.0,0.0,74,0.00,,,0.00,weatherlink.com 1.10,2013-04-06 09:18:00,
2013-04-06 05:34:00,27.5,21.0,30.26,ENE,78,0.0,0.0,76,0.00,,,0.00,weatherlink.com 1.10,2013-04-06 09:34:00,
2013-04-06 06:04:00,27.9,21.0,30.26,ENE,78,0.0,0.0,76,0.00,,,0.00,weatherlink.com 1.10,2013-04-06 10:04:00,
2013-04-06 06:34:00,28.6,21.0,30.27,ENE,78,0.0,0.0,74,0.00,,,0.00,weatherlink.com 1.10,2013-04-06 10:34:00,
2013-04-06 07:04:00,28.8,21.0,30.28,ENE,78,0.0,0.0,72,0.00,,,0.00,weatherlink.com 1.10,2013-04-06 11:04:00,
2013-04-06 07:19:00,28.8,20.0,30.28,ENE,78,0.0,0.0,71,0.00,,,0.00,weatherlink.com 1.10,2013-04-06 11:19:00,
2013-04-06 07:34:00,29.0,21.0,30.28,ENE,78,0.0,0.0,71,0.00,,,0.00,weatherlink.com 1.10,2013-04-06 11:34:00,
2013-04-06 07:49:00,29.4,20.0,30.29,ENE,78,0.0,0.0,68,0.00,,,0.00,weatherlink.com 1.10,2013-04-06 11:49:00,
2013-04-06 08:04:00,30.2,20.0,30.29,ENE,78,0.0,1.0,65,0.00,,,0.00,weatherlink.com 1.10,2013-04-06 12:04:00,
2013-04-06 08:34:00,32.3,18.0,30.29,ENE,77,1.0,2.0,57,0.00,,,0.00,weatherlink.com 1.10,2013-04-06 12:34:00,
2013-04-06 08:51:00,33.3,18.0,30.29,ESE,110,0.0,3.0,53,0.00,,,0.00,weatherlink.com 1.10,2013-04-06 12:51:00,
2013-04-06 09:04:00,34.2,18.0,30.30,ESE,106,0.0,4.0,52,0.00,,,0.00,weatherlink.com 1.10,2013-04-06 13:04:00,
2013-04-06 09:34:00,35.8,16.0,30.29,East,79,1.0,3.0,44,0.00,,,0.00,weatherlink.com 1.10,2013-04-06 13:34:00,
2013-04-06 09:49:00,36.2,14.0,30.29,ESE,112,0.0,2.0,40,0.00,,,0.00,weatherlink.com 1.10,2013-04-06 13:49:00,
2013-04-06 10:04:00,36.8,16.0,30.29,ESE,120,0.0,3.0,42,0.00,,,0.00,weatherlink.com 1.10,2013-04-06 14:04:00,
2013-04-06 10:19:00,38.2,17.0,30.29,SSE,151,2.0,3.0,42,0.00,,,0.00,weatherlink.com 1.10,2013-04-06 14:19:00,
2013-04-06 10:34:00,39.8,17.0,30.29,SE,144,2.0,3.0,40,0.00,,,0.00,weatherlink.com 1.10,2013-04-06 14:34:00,
2013-04-06 10:49:00,42.1,17.0,30.29,SE,144,2.0,5.0,36,0.00,,,0.00,weatherlink.com 1.10,2013-04-06 14:49:00,
2013-04-06 11:04:00,43.5,19.0,30.29,SE,129,5.0,5.0,37,0.00,,,0.00,weatherlink.com 1.10,2013-04-06 15:04:00,
2013-04-06 11:19:00,45.3,20.0,30.28,SSE,155,1.0,5.0,37,0.00,,,0.00,weatherlink.com 1.10,2013-04-06 15:19:00,
2013-04-06 11:34:00,46.3,18.0,30.27,SE,144,1.0,5.0,33,0.00,,,0.00,weatherlink.com 1.10,2013-04-06 15:34:00,
2013-04-06 11:52:00,47.6,22.0,30.26,SE,139,1.0,6.0,36,0.00,,,0.00,weatherlink.com 1.10,2013-04-06 15:52:00,
2013-04-06 12:05:00,48.0,21.0,30.26,East,85,2.0,8.0,34,0.00,,,0.00,weatherlink.com 1.10,2013-04-06 16:05:00,
2013-04-06 12:20:00,49.9,20.0,30.24,SSE,154,3.0,6.0,31,0.00,,,0.00,weatherlink.com 1.10,2013-04-06 16:20:00,
2013-04-06 12:35:00,49.9,22.0,30.23,SE,131,4.0,6.0,33,0.00,,,0.00,weatherlink.com 1.10,2013-04-06 16:35:00,
2013-04-06 12:50:00,51.0,22.0,30.23,SSW,212,4.0,5.0,32,0.00,,,0.00,weatherlink.com 1.10,2013-04-06 16:50:00,
2013-04-06 13:05:00,50.8,22.0,30.21,SSE,152,1.0,8.0,32,0.00,,,0.00,weatherlink.com 1.10,2013-04-06 17:05:00,
2013-04-06 13:20:00,52.1,21.0,30.21,SE,131,3.0,6.0,30,0.00,,,0.00,weatherlink.com 1.10,2013-04-06 17:20:00,
2013-04-06 13:35:00,52.0,22.0,30.20,SSW,212,7.0,7.0,31,0.00,,,0.00,weatherlink.com 1.10,2013-04-06 17:35:00,
2013-04-06 13:50:00,52.2,21.0,30.19,South,170,2.0,6.0,29,0.00,,,0.00,weatherlink.com 1.10,2013-04-06 17:50:00,
2013-04-06 14:05:00,52.7,21.0,30.19,SSE,164,2.0,5.0,29,0.00,,,0.00,weatherlink.com 1.10,2013-04-06 18:05:00,
2013-04-06 14:20:00,53.5,21.0,30.18,South,184,1.0,5.0,28,0.00,,,0.00,weatherlink.com 1.10,2013-04-06 18:20:00,
2013-04-06 14:35:00,53.9,20.0,30.17,SSE,152,4.0,7.0,26,0.00,,,0.00,weatherlink.com 1.10,2013-04-06 18:35:00,
2013-04-06 14:50:00,54.8,21.0,30.16,ESE,115,0.0,7.0,27,0.00,,,0.00,weatherlink.com 1.10,2013-04-06 18:50:00,
2013-04-06 15:05:00,54.6,22.0,30.16,WSW,237,3.0,5.0,28,0.00,,,0.00,weatherlink.com 1.10,2013-04-06 19:05:00,
2013-04-06 15:20:00,54.5,21.0,30.14,South,173,1.0,6.0,27,0.00,,,0.00,weatherlink.com 1.10,2013-04-06 19:20:00,
2013-04-06 15:35:00,54.5,21.0,30.14,ESE,122,3.0,4.0,27,0.00,,,0.00,weatherlink.com 1.10,2013-04-06 19:35:00,
2013-04-06 15:50:00,55.5,22.0,30.13,South,174,2.0,5.0,27,0.00,,,0.00,weatherlink.com 1.10,2013-04-06 19:50:00,
2013-04-06 16:05:00,56.0,22.0,30.12,SSW,195,2.0,7.0,27,0.00,,,0.00,weatherlink.com 1.10,2013-04-06 20:05:00,
2013-04-06 16:20:00,55.8,21.0,30.11,South,179,1.0,6.0,26,0.00,,,0.00,weatherlink.com 1.10,2013-04-06 20:20:00,
2013-04-06 16:35:00,56.1,21.0,30.11,WNW,289,2.0,6.0,26,0.00,,,0.00,weatherlink.com 1.10,2013-04-06 20:35:00,
2013-04-06 16:50:00,56.5,24.0,30.10,SSE,155,2.0,6.0,28,0.00,,,0.00,weatherlink.com 1.10,2013-04-06 20:50:00,
2013-04-06 17:05:00,56.4,22.0,30.09,SSW,197,2.0,5.0,26,0.00,,,0.00,weatherlink.com 1.10,2013-04-06 21:05:00,
2013-04-06 17:20:00,56.2,21.0,30.08,SSE,152,1.0,6.0,25,0.00,,,0.00,weatherlink.com 1.10,2013-04-06 21:20:00,
2013-04-06 17:35:00,56.0,21.0,30.08,SSE,167,1.0,5.0,26,0.00,,,0.00,weatherlink.com 1.10,2013-04-06 21:35:00,
2013-04-06 18:05:00,55.4,19.0,30.05,SSE,149,3.0,5.0,24,0.00,,,0.00,weatherlink.com 1.10,2013-04-06 22:05:00,
2013-04-06 18:20:00,55.8,20.0,30.05,SSE,151,1.0,4.0,25,0.00,,,0.00,weatherlink.com 1.10,2013-04-06 22:20:00,
2013-04-06 18:35:00,55.9,20.0,30.04,SSE,154,2.0,3.0,25,0.00,,,0.00,weatherlink.com 1.10,2013-04-06 22:35:00,
2013-04-06 18:51:00,56.0,20.0,30.03,SSE,153,1.0,5.0,25,0.00,,,0.00,weatherlink.com 1.10,2013-04-06 22:51:00,
2013-04-06 19:06:00,55.8,19.0,30.03,SE,141,1.0,4.0,24,0.00,,,0.00,weatherlink.com 1.10,2013-04-06 23:06:00,
2013-04-06 19:21:00,55.5,18.0,30.02,South,187,1.0,6.0,23,0.00,,,0.00,weatherlink.com 1.10,2013-04-06 23:21:00,
2013-04-06 19:36:00,55.0,18.0,30.02,SE,145,4.0,5.0,23,0.00,,,0.00,weatherlink.com 1.10,2013-04-06 23:36:00,
2013-04-06 19:51:00,54.4,18.0,30.00,SSE,166,3.0,7.0,24,0.00,,,0.00,weatherlink.com 1.10,2013-04-06 23:51:00,
2013-04-06 20:21:00,53.7,18.0,30.00,SSE,154,0.0,6.0,25,0.00,,,0.00,weatherlink.com 1.10,2013-04-07 00:21:00,
2013-04-06 21:21:00,53.3,18.0,29.97,SE,136,3.0,6.0,25,0.00,,,0.00,weatherlink.com 1.10,2013-04-07 01:21:00,
2013-04-06 21:51:00,53.0,19.0,29.96,SSE,160,2.0,7.0,26,0.00,,,0.00,weatherlink.com 1.10,2013-04-07 01:51:00,
2013-04-06 22:06:00,53.0,19.0,29.96,SE,130,2.0,4.0,26,0.00,,,0.00,weatherlink.com 1.10,2013-04-07 02:06:00,
2013-04-06 22:21:00,53.1,19.0,29.96,SSE,153,3.0,4.0,26,0.00,,,0.00,weatherlink.com 1.10,2013-04-07 02:21:00,
2013-04-06 22:36:00,53.2,18.0,29.96,SSE,160,1.0,5.0,25,0.00,,,0.00,weatherlink.com 1.10,2013-04-07 02:36:00,
2013-04-06 22:51:00,53.2,17.0,29.95,SSE,150,2.0,5.0,24,0.00,,,0.00,weatherlink.com 1.10,2013-04-07 02:51:00,
2013-04-06 23:06:00,53.1,18.0,29.94,SE,145,2.0,6.0,25,0.00,,,0.00,weatherlink.com 1.10,2013-04-07 03:06:00,
2013-04-06 23:21:00,52.8,18.0,29.93,SE,141,4.0,4.0,25,0.00,,,0.00,weatherlink.com 1.10,2013-04-07 03:21:00,
2013-04-06 23:36:00,52.8,18.0,29.92,SSE,156,5.0,6.0,25,0.00,,,0.00,weatherlink.com 1.10,2013-04-07 03:36:00,
2013-04-06 23:51:00,53.0,18.0,29.92,SE,146,1.0,8.0,25,0.00,,,0.00,weatherlink.com 1.10,2013-04-07 03:51:00,